This is the latest recevied weather packets stored in our database for station/object KE5QKR. If no packets are shown the sender has not sent any weather packets the latest 10 day(s).
| Time | Temp. | Humidity | Pressure | Rain* | Wind** | Luminosity | Snow |
|---|---|---|---|---|---|---|---|
| 1778264467 | 19.44° C | 94% | 1012.5 hPa | 0 mm | - | 12 W/m² | - |
| 1778264166 | 19.44° C | 93% | 1012.4 hPa | 0 mm | - | 12 W/m² | - |
| 1778263865 | 19.44° C | 93% | 1012.4 hPa | 0 mm | - | 14 W/m² | - |
| 1778263561 | 19.44° C | 93% | 1012.6 hPa | 0 mm | - | 24 W/m² | - |
| 1778263257 | 19.44° C | 93% | 1012.5 hPa | 0 mm | - | 32 W/m² | - |
| 1778262954 | 19.44° C | 92% | 1012.5 hPa | 0 mm | - | 38 W/m² | - |
| 1778262652 | 19.44° C | 92% | 1012.8 hPa | 0 mm | - | 30 W/m² | - |
| 1778262349 | 19.44° C | 92% | 1012.9 hPa | 0 mm | - | 37 W/m² | - |
| 1778262046 | 19.44° C | 92% | 1012.8 hPa | 0 mm | - | 73 W/m² | - |
| 1778261743 | 19.44° C | 92% | 1012.8 hPa | 0 mm | - | 97 W/m² | - |
| 1778261439 | 19.44° C | 92% | 1013 hPa | 0 mm | - | 113 W/m² | - |
| 1778261136 | 19.44° C | 91% | 1013.3 hPa | 0 mm | - | 106 W/m² | - |
| 1778260832 | 19.44° C | 91% | 1013.1 hPa | 0 mm | - | 146 W/m² | - |
| 1778260529 | 19.44° C | 91% | 1013.2 hPa | 0 mm | - | 151 W/m² | - |
| 1778260226 | 19.44° C | 92% | 1013.3 hPa | 0 mm | - | 102 W/m² | - |
| 1778259923 | 19.44° C | 92% | 1013.3 hPa | 0 mm | - | 81 W/m² | - |
| 1778259620 | 19.44° C | 92% | 1013.3 hPa | 0 mm | - | 56 W/m² | - |
| 1778259317 | 20° C | 92% | 1013.3 hPa | 0 mm | - | 52 W/m² | - |
| 1778259014 | 20.56° C | 91% | 1013.3 hPa | 0 mm | - | 71 W/m² | - |
| 1778258711 | 20.56° C | 90% | 1013 hPa | 0 mm | - | 197 W/m² | - |
| 1778258407 | 21.11° C | 89% | 1013.1 hPa | 0 mm | - | 206 W/m² | - |
| 1778258105 | 21.11° C | 89% | 1013.3 hPa | 0 mm | - | 479 W/m² | - |
| 1778257800 | 20.56° C | 90% | 1013.1 hPa | 0 mm | - | 290 W/m² | - |
| 1778257498 | 20.56° C | 90% | 1013.1 hPa | 0 mm | - | 224 W/m² | - |
| 1778257195 | 20.56° C | 89% | 1013.4 hPa | 0 mm | - | 127 W/m² | - |
* Rain latest hour (hover to see other rain measurements)
** Current wind speed in m/s (hover to see current wind gust speed)